Location: Ottawa
(45.4167°N, 75.7000°W)
Time: 13:04:02
(UTC-05:00)

N. Korean satellite - Pass Details

Date: 10 October 2017
Orbit: 461 x 513 km, 97.2° (Epoch: 14 December)

Event Time Altitude Azimuth Distance (km) Brightness Sun altitude
Rises 19:25:56 0° 182° (S) 2,562 10.2 -11.3°
Reaches altitude 10° 19:28:06 10° 189° (S) 1,676 9.4 -11.7°
Maximum altitude 19:31:31 41° 261° (W) 711 8.0 -12.3°
Drops below altitude 10° 19:34:55 10° 334° (NNW) 1,661 9.7 -12.9°
Sets 19:37:03 0° 341° (NNW) 2,536 10.5 -13.3°
